Flag for Belgium Weather past 2 weeks in Kortrijk, Belgium

Now
32 °F

Clear.


Feels Like: 24 °F
Forecast: 33 / 42 °F
Wind: 9 mph from West

Location: Lille Airport

Current Time: Dec 29, 2014 at 7:13:00 AM

Latest Report: Dec 29, 2014 at 6:30 AM


Visibility: 10 mi

Pressure: 30.57 "Hg

Humidity: 80%

Dew point: 27 °F

Location of KortrijkLocation

Historic Weather in Kortrijk — Graph

°F

Kortrijk temperature yesterday

Maximum temperature yesterday: 34 °F (at 12:00 AM)
Minimum temperature yesterday: 25 °F (at 10:00 PM)
Average temperature yesterday: 29 °F

Past Weeks' High & Low Weather Summary

 TemperatureHumidityPressure
High55 °F (Dec 18, 12:00 PM)100% (Dec 14, 6:00 AM)30.60 "Hg (Dec 14, 6:00 AM)
Low25 °F (Dec 28, 10:00 PM)51% (Dec 28, 2:30 PM)29.24 "Hg (Dec 27, 8:30 AM)
Average43 °F88%30.08 "Hg
* Reported Dec 14 6:00 AM — Dec 29 6:00 AM, Kortrijk, Weather by CustomWeather, © 2014

Note: Actual official high and low records may vary slightly from our data, if they occured in-between our weather recording intervals... More about our weather records

Advertising

Kortrijk weather history for previous 24 hours

 ConditionsComfort  
Time TempWeatherWind HumidityBarometerVisibility
6:00 AM
Dec 29
30 °FPassing clouds.9 mph86%30.57 "HgN/A
5:30 AM32 °FPassing clouds.9 mph87%30.57 "HgN/A
5:00 AM30 °FPassing clouds.8 mph93%30.60 "HgN/A
4:30 AM30 °FPassing clouds.10 mph86%30.60 "HgN/A
4:00 AM30 °FOvercast.9 mph86%30.60 "HgN/A
3:30 AM30 °FOvercast.6 mph86%30.60 "Hg6 mi
3:00 AM28 °FOvercast.6 mph86%30.60 "Hg5 mi
2:30 AM28 °FOvercast.6 mph86%30.60 "Hg4 mi
2:00 AM28 °FOvercast.3 mph86%30.60 "Hg4 mi
1:30 AM27 °FOvercast.5 mph93%30.60 "Hg4 mi
1:00 AM27 °FPassing clouds.5 mph86%30.60 "Hg4 mi
12:30 AM27 °FPartly cloudy.3 mph93%30.60 "Hg4 mi
12:00 AM27 °FIce fog.2 mph93%30.60 "Hg3 mi
11:30 PM
Dec 28
27 °FPassing clouds.2 mph93%30.60 "Hg4 mi
11:00 PM27 °FPassing clouds.3 mph93%30.60 "Hg4 mi
10:30 PM25 °FPassing clouds.5 mph86%30.60 "Hg5 mi
10:00 PM25 °FClear.2 mph93%30.60 "Hg5 mi
9:30 PM27 °FClear.2 mph86%30.60 "Hg10 mi
9:00 PM27 °FClear.No wind86%30.57 "Hg10 mi
8:30 PM28 °FClear.3 mph86%30.57 "Hg10 mi
8:00 PM28 °FClear.6 mph86%30.57 "Hg10 mi
7:30 PM30 °FPassing clouds.8 mph80%30.54 "HgN/A
7:00 PM30 °FPassing clouds.9 mph80%30.54 "HgN/A
6:30 PM28 °FPassing clouds.7 mph80%30.51 "HgN/A
6:00 PM30 °FClear.7 mph69%30.51 "Hg10 mi
5:30 PM30 °FClear.7 mph64%30.48 "Hg10 mi
5:00 PM30 °FClear.6 mph59%30.48 "Hg10 mi
4:30 PM32 °FSunny.5 mph51%30.45 "Hg10 mi
4:00 PM32 °FSunny.8 mph55%30.45 "Hg10 mi
3:30 PM32 °FSunny.12 mph51%30.42 "Hg10 mi
3:00 PM32 °FSunny.13 mph51%30.42 "Hg10 mi
2:30 PM32 °FSunny.12 mph51%30.42 "Hg10 mi
2:00 PM30 °FSunny.15 mph59%30.39 "Hg10 mi
1:30 PM30 °FSunny.16 mph59%30.36 "Hg10 mi
1:00 PM30 °FSunny.17 mph59%30.36 "Hg10 mi
12:30 PM30 °FSunny.17 mph59%30.36 "Hg10 mi
12:00 PM28 °FSunny.15 mph69%30.33 "Hg10 mi
11:30 AM28 °FSunny.17 mph69%30.33 "Hg10 mi
11:00 AM28 °FSunny.18 mph69%30.30 "Hg10 mi
10:30 AM27 °FSunny.17 mph74%30.27 "Hg10 mi
10:00 AM27 °FSunny.17 mph74%30.24 "Hg10 mi
9:30 AM27 °FSunny.17 mph74%30.21 "Hg10 mi
8:30 AM27 °FPassing clouds.17 mph74%30.15 "HgN/A
8:00 AM27 °FPassing clouds.18 mph74%30.12 "HgN/A
7:30 AM27 °FPassing clouds.18 mph74%30.09 "HgN/A
7:00 AM27 °FPassing clouds.17 mph80%30.07 "HgN/A
Weather by CustomWeather, © 2014

See weather overviewHow to use our weather pages